2021/06/20 23:28:48+0000,-42.07,-47.14,-32.14,-49.05,-54.99,-55.24
2021/06/20 23:29:41+0000,-41.44,-46.48,-31.84,-47.63,-41.47,-55.18
2021/06/20 23:30:33+0000,-41.70,-46.56,-31.78,-48.79,-54.52,-55.38
2021/06/20 23:31:32+0000,-42.19,-46.54,-32.22,-48.21,-55.17,-55.01
2021/06/20 23:32:24+0000,-41.54,-46.54,-31.34,-48.29,-55.43,-55.12
2021/06/20 23:33:16+0000,-42.11,-47.02,-31.57,-47.18,-55.02,-55.80
2021/06/20 23:34:08+0000,-42.64,-46.62,-31.90,-47.98,-54.55,-55.22
2021/06/20 23:35:00+0000,-42.21,-47.00,-31.86,-48.70,-55.21,-55.08
2021/06/20 23:35:52+0000,-42.05,-47.68,-32.15,-48.99,-55.36,-55.81
2021/06/20 23:36:45+0000,-41.85,-48.06,-31.59,-27.24,-54.63,-55.44
2021/06/20 23:37:37+0000,-42.48,-46.41,-32.00,-48.57,-55.00,-55.31
2021/06/20 23:38:29+0000,-42.14,-48.39,-31.64,-48.59,-54.98,-55.18
2021/06/20 23:39:21+0000,-42.72,-48.60,-31.40,-49.23,-54.77,-55.98
2021/06/20 23:40:13+0000,-41.75,-48.43,-32.65,-26.96,-55.46,-55.35
2021/06/20 23:41:18+0000,-41.91,-47.12,-31.95,-27.41,-54.96,-56.18
2021/06/20 23:42:10+0000,-42.83,-47.19,-32.20,-27.07,-55.64,-55.91
2021/06/20 23:43:02+0000,-41.85,-47.36,-32.02,-48.60,-55.21,-55.81
2021/06/20 23:43:54+0000,-41.44,-47.24,-32.02,-63.62,-54.87,-54.99
2021/06/20 23:44:46+0000,-42.48,-48.25,-32.52,-48.46,-54.58,-55.70
2021/06/20 23:45:38+0000,-42.14,-47.16,-32.33,-64.24,-55.56,-55.46
2021/06/20 23:46:30+0000,-41.98,-47.27,-32.00,-48.45,-54.88,-55.96
2021/06/20 23:47:22+0000,-42.65,-47.20,-31.56,-65.12,-54.41,-55.56
2021/06/20 23:48:14+0000,-42.99,-47.18,-32.08,-47.83,-55.08,-56.17
2021/06/20 23:49:06+0000,-42.04,-47.19,-31.88,-47.20,-55.59,-55.91
2021/06/20 23:49:59+0000,-42.74,-47.34,-32.11,-48.37,-54.46,-55.69
2021/06/20 23:50:51+0000,-42.60,-47.34,-32.25,-49.66,-54.81,-55.69
2021/06/20 23:51:53+0000,-41.66,-47.67,-31.68,-48.63,-55.60,-55.99
2021/06/20 23:52:45+0000,-41.44,-47.71,-32.43,-47.51,-55.50,-55.76
2021/06/20 23:53:37+0000,-41.93,-45.84,-32.25,-47.90,-55.03,-55.43
2021/06/20 23:54:29+0000,-41.20,-47.46,-32.50,-48.31,-54.94,-55.58
2021/06/20 23:55:21+0000,-41.87,-46.94,-31.68,-48.49,-55.36,-55.99
2021/06/20 23:56:13+0000,-41.57,-47.28,-32.09,-48.69,-55.55,-55.90
2021/06/20 23:57:05+0000,-42.79,-47.50,-31.88,-49.45,-55.40,-55.81
2021/06/20 23:57:57+0000,-42.60,-46.89,-31.82,-49.10,-55.52,-55.87
2021/06/20 23:58:49+0000,-42.69,-47.47,-31.92,-49.21,-55.45,-55.76
2021/06/20 23:59:41+0000,-42.29,-47.15,-32.24,-48.77,-55.54,-55.62
2021/06/21 00:00:33+0000,-43.14,-47.30,-31.97,-48.06,-55.53,-56.18
2021/06/21 00:01:42+0000,-42.38,-47.78,-31.63,-49.07,-55.67,-55.93
2021/06/21 00:02:34+0000,-42.56,-47.21,-31.92,-49.53,-55.33,-55.94
2021/06/21 00:03:26+0000,-42.61,-47.85,-32.76,-49.09,-56.29,-55.55
2021/06/21 00:04:18+0000,-42.63,-47.53,-31.99,-49.44,-56.08,-56.25
2021/06/21 00:05:10+0000,-41.00,-46.31,-32.26,-48.35,-55.77,-56.47
2021/06/21 00:06:02+0000,-42.39,-47.97,-32.35,-48.76,-56.25,-55.88
2021/06/21 00:06:54+0000,-41.79,-47.46,-32.27,-48.82,-55.70,-56.62
2021/06/21 00:07:46+0000,-42.05,-46.74,-32.10,-48.59,-55.33,-55.33
2021/06/21 00:08:38+0000,-42.56,-47.22,-32.34,-48.32,-55.88,-55.71
2021/06/21 00:09:30+0000,-41.17,-47.10,-31.98,-49.07,-55.99,-55.20
2021/06/21 00:10:22+0000,-43.14,-47.78,-32.51,-48.75,-55.40,-55.64
2021/06/21 00:11:22+0000,-42.61,-47.48,-31.83,-48.50,-55.69,-56.20
2021/06/21 00:12:14+0000,-43.14,-47.80,-32.60,-48.97,-55.92,-56.22
2021/06/21 00:13:06+0000,-42.56,-47.65,-31.89,-49.46,-55.73,-56.01
2021/06/21 00:13:58+0000,-42.38,-47.37,-31.92,-49.10,-55.56,-55.99
2021/06/21 00:14:50+0000,-42.57,-47.87,-31.95,-49.05,-54.12,-56.19
2021/06/21 00:15:42+0000,-43.02,-47.84,-31.95,-49.05,-54.52,-56.05
2021/06/21 00:16:34+0000,-41.82,-47.60,-32.76,-49.84,-55.19,-55.74
2021/06/21 00:17:26+0000,-42.20,-47.49,-32.50,-49.96,-54.70,-55.05
2021/06/21 00:18:18+0000,-41.04,-46.92,-31.99,-49.54,-55.79,-55.19
2021/06/21 00:19:10+0000,-42.56,-48.34,-31.69,-47.29,-55.44,-55.84
2021/06/21 00:20:03+0000,-41.60,-46.31,-31.64,-49.99,-55.42,-55.83
2021/06/21 00:21:03+0000,-42.61,-47.62,-31.71,-48.99,-55.71,-55.88
2021/06/21 00:21:55+0000,-41.73,-46.74,-31.28,-49.72,-54.43,-55.75
2021/06/21 00:22:47+0000,-40.95,-47.13,-31.65,-48.40,-54.70,-56.37
2021/06/21 00:23:39+0000,-42.32,-46.14,-31.80,-48.47,-54.97,-55.44
2021/06/21 00:24:31+0000,-41.69,-46.83,-31.97,-48.96,-54.96,-56.44
2021/06/21 00:25:23+0000,-42.12,-47.50,-31.79,-49.00,-54.79,-55.68
2021/06/21 00:26:15+0000,-42.99,-46.68,-32.18,-48.27,-54.84,-55.09
2021/06/21 00:27:07+0000,-42.15,-47.87,-31.70,-48.25,-55.54,-55.00
2021/06/21 00:27:59+0000,-41.99,-46.89,-31.92,-48.97,-55.44,-55.71
2021/06/21 00:28:51+0000,-42.36,-48.40,-31.23,-48.43,-54.58,-55.46
2021/06/21 00:29:44+0000,-43.03,-45.29,-32.07,-48.64,-55.13,-55.76
2021/06/21 00:30:36+0000,-43.19,-47.87,-31.89,-48.79,-55.15,-55.83
2021/06/21 00:31:38+0000,-42.00,-47.40,-32.38,-49.02,-54.97,-55.98
2021/06/21 00:32:30+0000,-41.54,-46.44,-31.42,-48.00,-54.96,-56.07
2021/06/21 00:33:22+0000,-41.33,-46.38,-31.53,-48.58,-54.93,-55.93
2021/06/21 00:34:14+0000,-41.70,-47.06,-31.96,-48.13,-54.86,-55.41
2021/06/21 00:35:06+0000,-41.71,-47.66,-32.27,-48.33,-55.17,-55.74
2021/06/21 00:35:58+0000,-40.52,-47.90,-31.67,-48.72,-54.56,-55.95
2021/06/21 00:36:50+0000,-41.22,-47.69,-31.41,-49.15,-55.77,-55.87
2021/06/21 00:37:42+0000,-41.79,-47.77,-31.70,-48.71,-54.60,-56.28
2021/06/21 00:38:34+0000,-42.56,-46.94,-31.51,-49.31,-55.29,-55.84
2021/06/21 00:39:26+0000,-42.36,-47.75,-31.92,-48.96,-54.58,-56.21
2021/06/21 00:40:18+0000,-42.13,-46.79,-31.61,-47.42,-55.12,-56.51
2021/06/21 00:41:19+0000,-40.04,-48.78,-31.66,-49.10,-54.80,-56.08
2021/06/21 00:42:11+0000,-41.18,-47.48,-31.79,-47.98,-54.88,-56.41
2021/06/21 00:43:03+0000,-39.50,-47.49,-31.50,-48.55,-55.30,-56.14
2021/06/21 00:43:55+0000,-39.90,-46.63,-31.82,-47.92,-54.47,-55.77
2021/06/21 00:44:47+0000,-39.08,-49.71,-32.36,-47.97,-54.44,-56.05
2021/06/21 00:45:39+0000,-39.55,-49.95,-31.46,-47.20,-55.09,-55.14
2021/06/21 00:46:31+0000,-40.59,-49.58,-31.54,-47.83,-54.86,-55.20
2021/06/21 00:47:23+0000,-40.14,-50.62,-31.50,-48.18,-55.61,-56.04
2021/06/21 00:48:15+0000,-40.07,-50.26,-31.87,-47.92,-55.14,-55.84
2021/06/21 00:49:07+0000,-40.46,-49.84,-31.79,-47.88,-55.28,-56.54
2021/06/21 00:49:59+0000,-39.58,-49.47,-31.71,-49.08,-54.60,-56.15
2021/06/21 00:50:51+0000,-40.62,-50.05,-32.15,-49.41,-55.05,-56.23
2021/06/21 00:51:51+0000,-40.98,-50.35,-31.88,-49.09,-55.25,-56.07
2021/06/21 00:52:43+0000,-40.61,-50.15,-31.68,-49.04,-54.46,-55.84
2021/06/21 00:53:35+0000,-40.19,-50.05,-31.81,-49.28,-55.26,-55.35
2021/06/21 00:54:27+0000,-41.26,-50.24,-32.19,-48.35,-55.04,-55.34
2021/06/21 00:55:20+0000,-40.68,-48.79,-31.66,-49.38,-55.39,-55.98
2021/06/21 00:56:12+0000,-40.52,-49.80,-32.11,-49.02,-55.00,-56.33
2021/06/21 00:57:04+0000,-40.16,-49.93,-32.03,-49.08,-54.82,-55.96
2021/06/21 00:57:56+0000,-40.02,-49.72,-32.06,-49.23,-55.03,-55.58
2021/06/21 00:58:48+0000,-39.45,-49.48,-31.55,-48.02,-55.36,-56.53
2021/06/21 00:59:40+0000,-40.31,-49.79,-31.03,-49.36,-55.47,-56.04
2021/06/21 01:00:32+0000,-39.12,-49.56,-31.56,-48.53,-54.46,-56.36
2021/06/21 01:01:32+0000,-39.76,-50.59,-31.81,-49.98,-54.66,-55.50
2021/06/21 01:02:24+0000,-39.55,-49.45,-31.63,-48.39,-54.86,-55.86
2021/06/21 01:03:16+0000,-40.43,-50.07,-32.36,-48.31,-55.19,-56.38
2021/06/21 01:04:08+0000,-40.01,-50.41,-30.82,-48.74,-54.86,-56.43
2021/06/21 01:05:00+0000,-40.50,-50.18,-31.40,-48.99,-54.76,-56.24
2021/06/21 01:05:52+0000,-40.70,-49.95,-32.09,-49.09,-55.70,-56.29
2021/06/21 01:06:44+0000,-40.90,-50.82,-31.37,-48.46,-55.21,-55.85
2021/06/21 01:07:36+0000,-41.40,-50.66,-31.15,-48.51,-55.48,-56.03
2021/06/21 01:08:28+0000,-40.63,-50.60,-31.45,-49.04,-54.97,-55.70
2021/06/21 01:09:20+0000,-39.22,-50.59,-30.92,-49.21,-55.19,-56.11
2021/06/21 01:10:12+0000,-41.67,-50.38,-31.27,-47.04,-55.94,-56.07
2021/06/21 01:11:20+0000,-41.41,-50.01,-30.80,-48.64,-55.49,-55.75
2021/06/21 01:12:12+0000,-42.18,-50.42,-31.22,-48.83,-54.83,-55.39
2021/06/21 01:13:04+0000,-40.71,-49.27,-31.42,-49.25,-54.73,-55.35
2021/06/21 01:13:56+0000,-41.79,-50.06,-31.23,-48.80,-54.92,-56.14
2021/06/21 01:14:48+0000,-40.81,-50.07,-31.41,-50.14,-54.56,-55.69
2021/06/21 01:15:40+0000,-40.76,-49.50,-31.56,-49.25,-55.20,-55.84
2021/06/21 01:16:32+0000,-40.88,-49.71,-31.13,-48.36,-54.77,-56.16
2021/06/21 01:17:24+0000,-40.62,-49.55,-31.09,-48.82,-54.82,-56.02
2021/06/21 01:18:16+0000,-39.63,-49.78,-30.79,-48.96,-54.73,-56.18
2021/06/21 01:19:08+0000,-40.54,-49.96,-31.30,-48.60,-54.97,-55.97
2021/06/21 01:20:00+0000,-40.84,-50.10,-31.26,-48.63,-55.04,-56.30
2021/06/21 01:21:14+0000,-41.22,-49.58,-31.11,-48.61,-55.00,-55.97
2021/06/21 01:22:06+0000,-39.87,-49.51,-32.05,-48.03,-54.46,-55.87
2021/06/21 01:22:58+0000,-39.98,-49.88,-31.23,-47.75,-53.78,-55.81
2021/06/21 01:23:50+0000,-40.49,-50.08,-31.32,-49.05,-54.87,-55.99
2021/06/21 01:24:42+0000,-40.36,-49.18,-31.37,-48.80,-55.48,-56.24
2021/06/21 01:25:35+0000,-39.60,-49.71,-31.20,-48.64,-54.53,-56.36
2021/06/21 01:26:27+0000,-40.32,-50.12,-31.44,-49.38,-54.96,-55.79
2021/06/21 01:27:19+0000,-40.69,-51.13,-31.38,-49.60,-54.85,-56.66
2021/06/21 01:28:11+0000,-41.23,-50.45,-31.27,-48.75,-54.64,-55.67
2021/06/21 01:29:03+0000,-42.10,-48.90,-31.47,-49.28,-54.57,-56.10
2021/06/21 01:29:55+0000,-41.18,-50.31,-30.97,-49.11,-55.00,-56.35
2021/06/21 01:30:47+0000,-41.64,-50.44,-31.36,-48.60,-54.78,-56.57
2021/06/21 01:31:47+0000,-41.79,-49.71,-31.55,-48.44,-54.75,-55.73
2021/06/21 01:32:39+0000,-41.46,-49.83,-31.68,-49.08,-55.48,-56.14
2021/06/21 01:33:31+0000,-41.65,-48.78,-31.37,-49.84,-54.40,-55.99
2021/06/21 01:34:23+0000,-40.70,-49.47,-31.26,-48.75,-54.27,-55.78
2021/06/21 01:35:15+0000,-41.57,-49.95,-31.26,-48.35,-54.22,-56.46
2021/06/21 01:36:07+0000,-42.00,-47.73,-30.92,-47.96,-54.37,-56.51
2021/06/21 01:36:59+0000,-42.00,-49.88,-31.03,-49.99,-55.01,-56.15
2021/06/21 01:37:52+0000,-42.32,-49.99,-31.38,-48.94,-54.76,-56.29
2021/06/21 01:38:44+0000,-42.55,-49.69,-31.92,-49.09,-54.58,-56.20
2021/06/21 01:39:36+0000,-41.02,-49.64,-31.80,-48.18,-55.10,-56.22
2021/06/21 01:40:28+0000,-42.30,-49.19,-31.55,-49.38,-54.65,-55.34
2021/06/21 01:41:28+0000,-40.99,-49.44,-31.43,-48.09,-55.11,-56.19
2021/06/21 01:42:20+0000,-42.43,-49.85,-31.61,-49.33,-54.24,-56.14
2021/06/21 01:43:12+0000,-40.36,-49.38,-31.46,-49.46,-54.68,-54.90
2021/06/21 01:44:04+0000,-40.99,-48.98,-31.30,-49.55,-54.82,-55.60
2021/06/21 01:44:56+0000,-41.90,-48.71,-31.39,-48.17,-55.02,-55.72
2021/06/21 01:45:48+0000,-41.25,-50.07,-31.69,-49.88,-54.73,-55.97
2021/06/21 01:46:40+0000,-41.32,-50.07,-31.75,-49.26,-55.40,-55.81
2021/06/21 01:47:32+0000,-41.56,-49.51,-31.65,-49.29,-55.27,-56.56
2021/06/21 01:48:24+0000,-41.99,-49.52,-31.44,-48.83,-55.25,-56.43
2021/06/21 01:49:16+0000,-41.72,-49.19,-31.28,-49.30,-55.11,-55.75
2021/06/21 01:50:08+0000,-40.58,-49.72,-31.02,-48.38,-54.59,-55.92
2021/06/21 01:51:08+0000,-41.16,-49.85,-31.19,-48.24,-55.49,-56.06
2021/06/21 01:52:00+0000,-41.90,-50.02,-31.09,-48.73,-54.77,-55.75
2021/06/21 01:52:52+0000,-41.58,-49.66,-31.35,-48.89,-54.95,-56.29
2021/06/21 01:53:44+0000,-42.17,-49.86,-31.26,-49.41,-54.82,-54.96
2021/06/21 01:54:37+0000,-40.43,-49.39,-31.77,-48.35,-54.26,-54.66
2021/06/21 01:55:29+0000,-41.18,-49.00,-31.61,-46.98,-55.07,-55.66
2021/06/21 01:56:21+0000,-41.47,-50.08,-31.46,-48.42,-54.41,-56.01
2021/06/21 01:57:13+0000,-42.81,-49.65,-31.45,-47.65,-54.73,-55.82
2021/06/21 01:58:05+0000,-41.90,-49.70,-31.39,-49.10,-54.52,-55.57
2021/06/21 01:58:57+0000,-41.61,-49.79,-31.37,-47.33,-54.50,-56.50
2021/06/21 01:59:49+0000,-42.71,-49.89,-31.30,-49.07,-55.21,-55.96
2021/06/21 02:00:41+0000,-43.15,-48.55,-31.52,-47.58,-54.42,-56.12
2021/06/21 02:01:47+0000,-42.08,-49.67,-31.49,-48.86,-54.48,-55.79
2021/06/21 02:02:39+0000,-42.50,-49.20,-31.13,-48.24,-54.83,-55.64
2021/06/21 02:03:31+0000,-42.09,-50.01,-31.06,-48.26,-54.61,-55.34
2021/06/21 02:04:23+0000,-41.46,-50.12,-31.98,-48.24,-55.01,-55.88
2021/06/21 02:05:15+0000,-42.36,-48.70,-31.06,-48.92,-55.48,-55.87
2021/06/21 02:06:07+0000,-41.35,-49.38,-31.16,-48.69,-54.88,-55.54
2021/06/21 02:06:59+0000,-42.17,-50.09,-31.57,-47.43,-53.77,-55.97
2021/06/21 02:07:51+0000,-42.25,-49.79,-31.67,-48.06,-54.77,-56.02
2021/06/21 02:08:43+0000,-41.89,-49.33,-32.01,-48.67,-54.32,-55.73
2021/06/21 02:09:35+0000,-43.03,-50.12,-31.39,-47.06,-55.35,-55.65
2021/06/21 02:10:27+0000,-42.00,-50.00,-32.01,-47.71,-54.65,-56.12
2021/06/21 02:11:28+0000,-42.37,-49.76,-31.26,-47.38,-54.69,-56.12
2021/06/21 02:12:20+0000,-41.70,-49.68,-31.20,-47.99,-55.42,-56.12
2021/06/21 02:13:12+0000,-41.89,-48.54,-31.53,-48.26,-54.71,-56.05
2021/06/21 02:14:04+0000,-42.70,-49.69,-31.97,-49.04,-54.45,-55.19
2021/06/21 02:14:56+0000,-42.74,-48.85,-31.60,-48.57,-54.68,-55.40
2021/06/21 02:15:48+0000,-42.46,-48.80,-31.39,-49.04,-55.11,-55.59
2021/06/21 02:16:40+0000,-41.82,-49.89,-31.34,-48.94,-55.07,-56.45
2021/06/21 02:17:32+0000,-42.47,-48.84,-31.47,-48.75,-55.42,-55.84
2021/06/21 02:18:24+0000,-41.70,-48.71,-31.54,-47.96,-55.58,-55.44
2021/06/21 02:19:16+0000,-42.14,-49.49,-31.74,-48.19,-54.70,-56.14
2021/06/21 02:20:09+0000,-42.13,-48.99,-31.55,-48.40,-55.07,-56.11
2021/06/21 02:21:17+0000,-41.99,-49.04,-31.47,-48.63,-54.92,-56.11
2021/06/21 02:22:09+0000,-41.60,-49.58,-31.87,-49.26,-54.92,-56.15
2021/06/21 02:23:01+0000,-42.14,-49.23,-32.21,-48.58,-54.86,-56.05
2021/06/21 02:23:54+0000,-41.83,-48.33,-31.66,-48.40,-53.90,-55.26
2021/06/21 02:24:46+0000,-41.64,-48.93,-31.43,-48.22,-55.11,-55.56
2021/06/21 02:25:38+0000,-42.34,-49.95,-31.72,-48.43,-55.61,-56.31
2021/06/21 02:26:30+0000,-42.24,-48.69,-31.39,-48.73,-55.35,-55.70
2021/06/21 02:27:22+0000,-42.17,-50.10,-31.57,-49.25,-55.16,-56.08
2021/06/21 02:28:14+0000,-40.84,-48.80,-31.14,-47.88,-55.00,-55.72
2021/06/21 02:29:06+0000,-42.07,-49.64,-31.32,-47.65,-54.70,-55.86
2021/06/21 02:29:58+0000,-41.49,-49.16,-31.07,-49.27,-54.99,-56.22
2021/06/21 02:30:50+0000,-41.98,-48.70,-30.80,-49.95,-55.49,-56.05
2021/06/21 02:31:50+0000,-41.28,-48.76,-30.71,-50.25,-54.81,-55.75
2021/06/21 02:32:42+0000,-41.81,-48.11,-31.49,-48.81,-55.29,-55.92
2021/06/21 02:33:34+0000,-41.90,-48.35,-31.33,-49.63,-54.69,-56.25
2021/06/21 02:34:26+0000,-40.80,-49.01,-31.81,-49.13,-55.84,-56.13
2021/06/21 02:35:18+0000,-41.88,-48.75,-31.63,-48.12,-55.24,-56.33
2021/06/21 02:36:10+0000,-41.53,-44.64,-31.46,-48.96,-54.87,-56.70
2021/06/21 02:37:02+0000,-41.99,-46.07,-31.25,-49.52,-55.38,-56.05
2021/06/21 02:37:54+0000,-41.21,-47.77,-31.50,-48.05,-55.18,-56.85
2021/06/21 02:38:46+0000,-41.56,-45.26,-31.16,-46.83,-54.88,-56.56
2021/06/21 02:39:38+0000,-41.50,-43.74,-31.09,-47.82,-54.97,-56.51
2021/06/21 02:40:30+0000,-41.45,-46.44,-30.90,-49.08,-55.16,-56.09
2021/06/21 02:41:32+0000,-40.57,-45.90,-31.62,-48.71,-55.66,-56.08
2021/06/21 02:42:24+0000,-41.99,-39.57,-31.64,-48.72,-55.15,-56.49
2021/06/21 02:43:16+0000,-42.15,-47.83,-31.83,-47.70,-54.94,-56.51
2021/06/21 02:44:08+0000,-41.50,-47.30,-31.48,-48.97,-55.48,-57.31
2021/06/21 02:45:00+0000,-42.23,-47.33,-31.08,-48.62,-55.08,-56.28
2021/06/21 02:45:52+0000,-42.19,-48.21,-31.28,-48.88,-55.65,-56.08
2021/06/21 02:46:44+0000,-42.83,-46.55,-31.78,-47.77,-55.49,-55.75
2021/06/21 02:47:36+0000,-41.34,-47.47,-31.77,-48.53,-55.27,-55.86
2021/06/21 02:48:28+0000,-42.44,-47.44,-31.51,-48.29,-55.43,-55.65
2021/06/21 02:49:20+0000,-42.10,-45.65,-31.48,-49.61,-54.97,-55.81
2021/06/21 02:50:12+0000,-42.38,-47.32,-31.48,-49.96,-54.93,-56.29
2021/06/21 02:51:12+0000,-42.63,-47.86,-31.95,-48.87,-55.49,-55.64
2021/06/21 02:52:04+0000,-41.39,-49.32,-31.81,-49.25,-56.11,-56.12
2021/06/21 02:52:56+0000,-40.25,-49.30,-31.30,-48.47,-54.90,-55.90
2021/06/21 02:53:48+0000,-42.32,-48.62,-31.90,-48.64,-55.82,-55.79
2021/06/21 02:54:40+0000,-42.36,-49.41,-31.93,-47.69,-55.56,-55.78
2021/06/21 02:55:32+0000,-42.25,-48.98,-31.72,-49.42,-55.15,-55.97
2021/06/21 02:56:24+0000,-42.03,-49.17,-31.34,-49.48,-55.74,-55.71
2021/06/21 02:57:17+0000,-41.32,-49.50,-31.35,-47.64,-55.33,-55.70
2021/06/21 02:58:09+0000,-41.66,-49.03,-31.72,-48.37,-55.99,-56.69
2021/06/21 02:59:01+0000,-41.49,-49.38,-31.31,-49.59,-55.98,-55.96
2021/06/21 02:59:53+0000,-41.80,-48.94,-31.68,-49.43,-55.52,-55.71
2021/06/21 03:00:45+0000,-42.27,-48.88,-31.78,-48.89,-55.62,-56.13
2021/06/21 03:01:45+0000,-41.49,-48.24,-31.18,-47.46,-54.92,-56.15
2021/06/21 03:02:37+0000,-41.05,-47.93,-31.44,-48.36,-55.36,-56.12
2021/06/21 03:03:29+0000,-40.91,-48.00,-31.33,-48.69,-55.37,-56.33
2021/06/21 03:04:21+0000,-41.35,-47.49,-31.50,-50.12,-55.89,-55.96
2021/06/21 03:05:13+0000,-42.02,-48.20,-31.12,-49.64,-55.84,-56.74
2021/06/21 03:06:05+0000,-42.49,-47.83,-31.48,-48.49,-55.65,-55.51
2021/06/21 03:06:57+0000,-40.08,-47.15,-31.17,-48.94,-55.37,-55.88
2021/06/21 03:07:49+0000,-39.80,-46.99,-31.14,-49.19,-55.69,-55.98
2021/06/21 03:08:41+0000,-40.56,-47.57,-31.23,-47.88,-55.62,-55.63
2021/06/21 03:09:33+0000,-40.36,-47.81,-31.37,-48.94,-56.39,-55.64
2021/06/21 03:10:25+0000,-41.50,-46.98,-31.29,-49.54,-56.31,-55.99
2021/06/21 03:11:25+0000,-42.47,-46.67,-31.15,-49.21,-55.37,-55.16
2021/06/21 03:12:17+0000,-41.29,-45.96,-31.18,-48.19,-55.09,-55.13
2021/06/21 03:13:09+0000,-41.25,-46.34,-30.98,-48.95,-55.60,-56.06
2021/06/21 03:14:01+0000,-41.23,-46.26,-31.13,-48.88,-55.08,-56.47
2021/06/21 03:14:53+0000,-41.66,-47.59,-31.17,-48.34,-55.20,-55.25
2021/06/21 03:15:45+0000,-40.84,-45.19,-31.50,-47.58,-55.21,-56.01
2021/06/21 03:16:37+0000,-41.02,-46.71,-31.38,-48.32,-54.92,-55.30
2021/06/21 03:17:29+0000,-40.83,-46.41,-31.28,-49.50,-54.96,-56.23
2021/06/21 03:18:21+0000,-41.13,-48.07,-31.29,-49.10,-54.94,-56.40
2021/06/21 03:19:13+0000,-41.27,-45.47,-31.22,-47.79,-55.09,-56.47
2021/06/21 03:20:06+0000,-41.27,-48.14,-31.72,-49.01,-55.04,-55.99
2021/06/21 03:21:05+0000,-41.96,-48.44,-31.73,-48.71,-55.30,-55.06
2021/06/21 03:21:57+0000,-42.53,-47.17,-31.44,-47.94,-55.18,-56.16
2021/06/21 03:22:49+0000,-41.20,-45.98,-31.11,-49.38,-55.67,-55.69
2021/06/21 03:23:41+0000,-40.34,-46.38,-31.49,-49.39,-54.71,-56.09
2021/06/21 03:24:33+0000,-42.13,-48.56,-31.35,-49.89,-54.89,-55.33
2021/06/21 03:25:25+0000,-41.44,-46.37,-31.77,-46.85,-55.33,-55.01
2021/06/21 03:26:17+0000,-41.27,-46.74,-31.29,-49.74,-55.19,-55.80
2021/06/21 03:27:09+0000,-41.41,-47.14,-31.45,-49.34,-55.36,-55.17
2021/06/21 03:28:02+0000,-41.80,-45.52,-30.83,-46.12,-55.36,-55.32
2021/06/21 03:28:54+0000,-41.32,-46.25,-31.44,-45.73,-55.73,-55.49
2021/06/21 03:29:46+0000,-42.12,-48.39,-31.07,-46.80,-55.18,-55.17
2021/06/21 03:30:38+0000,-41.58,-47.84,-31.42,-48.07,-54.93,-55.28
2021/06/21 03:31:37+0000,-42.56,-48.48,-31.47,-48.71,-55.27,-55.68
2021/06/21 03:32:29+0000,-41.97,-48.96,-32.49,-47.86,-55.12,-55.48
2021/06/21 03:33:21+0000,-41.45,-50.09,-31.55,-48.02,-55.27,-55.02
2021/06/21 03:34:14+0000,-41.15,-48.14,-31.25,-48.29,-55.77,-55.66
2021/06/21 03:35:06+0000,-40.95,-50.62,-31.78,-48.82,-55.42,-55.70
2021/06/21 03:35:58+0000,-40.21,-47.73,-31.25,-47.93,-55.31,-55.71
2021/06/21 03:36:50+0000,-42.00,-49.92,-31.41,-48.70,-55.72,-54.76
2021/06/21 03:37:42+0000,-41.12,-48.96,-31.95,-47.88,-55.17,-55.87
2021/06/21 03:38:34+0000,-41.94,-47.19,-31.41,-49.05,-55.72,-56.12
2021/06/21 03:39:26+0000,-41.22,-47.97,-32.07,-47.37,-55.50,-56.88
2021/06/21 03:40:18+0000,-41.32,-49.20,-31.46,-49.22,-55.44,-55.82
2021/06/21 03:41:20+0000,-40.86,-48.77,-31.13,-49.34,-55.48,-56.00
2021/06/21 03:42:12+0000,-41.38,-48.81,-31.77,-48.01,-54.80,-55.47
2021/06/21 03:43:04+0000,-42.17,-48.03,-31.74,-49.14,-55.03,-55.36
2021/06/21 03:43:56+0000,-41.57,-46.59,-31.87,-47.43,-55.30,-55.75
2021/06/21 03:44:48+0000,-40.85,-49.42,-31.61,-48.93,-56.01,-56.45
2021/06/21 03:45:40+0000,-42.13,-48.29,-31.55,-47.49,-54.74,-55.86
2021/06/21 03:46:32+0000,-42.26,-48.69,-31.78,-47.06,-55.76,-56.83
2021/06/21 03:47:24+0000,-42.35,-48.88,-31.77,-48.96,-55.37,-56.00
2021/06/21 03:48:16+0000,-42.71,-48.99,-31.11,-47.82,-55.50,-56.45
2021/06/21 03:49:08+0000,-42.32,-49.02,-31.41,-49.20,-55.76,-56.54
2021/06/21 03:50:00+0000,-41.42,-47.04,-31.76,-47.93,-55.23,-56.61
2021/06/21 03:51:09+0000,-40.86,-49.29,-31.89,-48.40,-55.78,-56.23
2021/06/21 03:52:01+0000,-40.42,-48.61,-31.28,-47.76,-55.57,-54.94
2021/06/21 03:52:54+0000,-41.61,-48.36,-31.07,-48.21,-55.92,-55.24
2021/06/21 03:53:46+0000,-41.84,-48.00,-31.61,-47.97,-54.75,-55.29
2021/06/21 03:54:38+0000,-42.31,-49.45,-31.37,-47.47,-55.15,-55.76
2021/06/21 03:55:30+0000,-42.27,-48.53,-32.04,-47.47,-56.10,-55.99
2021/06/21 03:56:22+0000,-40.85,-49.99,-31.58,-48.08,-55.64,-56.06
2021/06/21 03:57:14+0000,-40.58,-46.92,-31.34,-47.79,-54.68,-55.79
2021/06/21 03:58:06+0000,-42.18,-48.91,-30.70,-49.06,-55.50,-56.12
2021/06/21 03:58:58+0000,-42.55,-47.40,-31.56,-47.31,-55.22,-55.44
2021/06/21 03:59:50+0000,-40.84,-45.65,-31.27,-49.45,-55.31,-55.29
2021/06/21 04:00:42+0000,-41.41,-47.37,-31.42,-47.59,-55.55,-55.50
2021/06/21 04:01:47+0000,-40.05,-46.02,-31.21,-48.53,-55.78,-55.72
2021/06/21 04:02:39+0000,-41.90,-45.91,-31.38,-48.55,-56.41,-55.21
2021/06/21 04:03:31+0000,-40.75,-47.49,-31.51,-48.10,-55.95,-56.13
2021/06/21 04:04:23+0000,-41.37,-47.42,-31.46,-47.89,-55.65,-55.38
2021/06/21 04:05:15+0000,-41.30,-45.93,-31.47,-48.11,-55.67,-55.70
2021/06/21 04:06:08+0000,-41.52,-45.25,-31.46,-44.48,-55.94,-55.66
2021/06/21 04:07:00+0000,-41.12,-46.62,-31.38,-48.36,-55.67,-56.38
2021/06/21 04:07:52+0000,-41.43,-45.99,-31.75,-48.23,-55.10,-55.57
2021/06/21 04:08:44+0000,-42.17,-44.75,-31.59,-45.02,-55.45,-55.01
2021/06/21 04:09:36+0000,-41.65,-46.60,-31.39,-46.94,-55.81,-55.67
2021/06/21 04:10:28+0000,-42.29,-45.93,-31.62,-48.38,-55.61,-56.02
2021/06/21 04:11:28+0000,-41.03,-45.10,-31.27,-49.10,-55.96,-55.69
2021/06/21 04:12:20+0000,-41.90,-46.34,-30.97,-48.72,-56.17,-55.81
2021/06/21 04:13:12+0000,-41.93,-45.59,-32.13,-45.42,-56.39,-56.14
2021/06/21 04:14:04+0000,-41.46,-44.83,-31.47,-49.42,-55.82,-56.02
2021/06/21 04:14:56+0000,-41.96,-46.29,-31.27,-48.36,-55.54,-55.30
2021/06/21 04:15:48+0000,-42.29,-45.52,-31.22,-48.81,-55.35,-55.68
2021/06/21 04:16:40+0000,-42.17,-45.18,-32.09,-47.81,-55.46,-55.21
2021/06/21 04:17:32+0000,-41.66,-45.92,-31.10,-48.55,-56.26,-56.12
2021/06/21 04:18:24+0000,-41.80,-46.05,-31.46,-48.26,-55.82,-55.82
2021/06/21 04:19:16+0000,-40.37,-45.27,-31.57,-45.92,-55.56,-55.83
2021/06/21 04:20:08+0000,-41.74,-45.69,-31.70,-47.28,-55.66,-55.57
2021/06/21 04:21:08+0000,-40.71,-46.11,-31.58,-46.81,-55.42,-55.35
2021/06/21 04:22:00+0000,-40.56,-45.73,-31.20,-46.97,-55.73,-55.86
2021/06/21 04:22:52+0000,-40.30,-44.57,-31.27,-49.42,-55.57,-56.45
2021/06/21 04:23:44+0000,-40.69,-46.28,-31.56,-46.92,-55.00,-55.51
2021/06/21 04:24:37+0000,-41.79,-46.56,-32.14,-46.25,-55.63,-55.84
2021/06/21 04:25:29+0000,-40.18,-45.64,-31.64,-47.90,-55.19,-55.53
2021/06/21 04:26:21+0000,-40.82,-46.19,-31.63,-47.98,-54.91,-54.79
2021/06/21 04:27:13+0000,-41.46,-44.97,-31.16,-45.59,-55.15,-56.24
2021/06/21 04:28:05+0000,-40.52,-45.30,-31.45,-45.97,-55.35,-55.93
2021/06/21 04:28:57+0000,-41.92,-44.95,-31.75,-46.71,-55.50,-55.68
2021/06/21 04:29:49+0000,-41.94,-44.73,-31.24,-48.23,-55.09,-55.52
2021/06/21 04:30:41+0000,-41.28,-45.03,-31.92,-45.45,-55.20,-56.09
2021/06/21 04:31:44+0000,-40.71,-44.78,-31.61,-43.53,-55.69,-56.11
2021/06/21 04:32:36+0000,-41.86,-46.71,-30.87,-43.72,-55.19,-55.54
2021/06/21 04:33:29+0000,-41.97,-44.74,-31.34,-47.93,-55.20,-56.17
2021/06/21 04:34:21+0000,-42.56,-46.47,-31.31,-47.82,-54.63,-56.08
2021/06/21 04:35:13+0000,-40.63,-45.91,-31.17,-45.87,-56.07,-55.64
2021/06/21 04:36:05+0000,-41.62,-45.21,-31.43,-47.45,-55.48,-55.23
2021/06/21 04:36:57+0000,-41.58,-46.38,-30.93,-47.31,-55.69,-54.74
2021/06/21 04:37:49+0000,-41.92,-45.28,-31.90,-48.10,-55.90,-56.33
2021/06/21 04:38:41+0000,-42.36,-45.22,-32.09,-45.09,-55.71,-56.02
2021/06/21 04:39:33+0000,-40.48,-45.59,-31.68,-48.74,-55.85,-55.68
2021/06/21 04:40:25+0000,-42.14,-45.96,-31.58,-47.54,-55.58,-55.96
2021/06/21 04:41:25+0000,-41.15,-44.81,-31.09,-46.91,-56.07,-55.97
2021/06/21 04:42:17+0000,-40.05,-46.41,-31.52,-46.25,-55.95,-55.91
2021/06/21 04:43:09+0000,-42.03,-45.28,-31.57,-46.45,-55.82,-56.21
2021/06/21 04:44:01+0000,-41.43,-45.43,-31.56,-45.79,-56.38,-56.27